Regional Weather Roundup
Issued by NWS

Home | Current Version | Previous Version | Graphics & Text | Print | Product List | Glossary On
Versions: 1 2 3 4 5 6 7 8 9 10 11 12 13 14 15 16 17 18 19 20 21 22 23 24 25 26 27 28 29 30 31 32 33 34 35 36 37 38 39 40 41 42 43 44 45 46 47 48 49 50
000
ASUS43 KOAX 221402
RWRNE

WEATHER ROUNDUP FOR NEBRASKA
NATIONAL WEATHER SERVICE OMAHA NE
900 AM CDT FRI AUG 22 2014

NOTES: SATELLITE DATA IS BEING USED TO AUGMENT CLOUD COVER ABOVE
       12000 FEET.
       "FAIR" INDICATES FEW OR NO CLOUDS BELOW 12,000 FEET WITH NO
       SIGNIFICANT WEATHER AND/OR OBSTRUCTIONS TO VISIBILITY.

  * THESE STATIONS DO NOT REPORT WEATHER SUCH AS RAIN...SNOW OR FOG.

NEZ001>004-019>022-054>056-221500-
NEBRASKA PANHANDLE

CITY           SKY/WX    TMP DP  RH WIND       PRES   REMARKS
SCOTTSBLUFF    CLOUDY    65  55  70 NW10      30.11S
ALLIANCE       CLOUDY    67  52  58 N6        30.10S
CHADRON        CLOUDY    63  56  78 W3        30.09R
KIMBALL        LGT RAIN  61  58  88 S6        30.13F
SIDNEY         CLOUDY    63  60  90 SW3       30.13S
$$

NEZ057>060-069>072-079>082-221500-
SOUTHWEST NEBRASKA

CITY           SKY/WX    TMP DP  RH WIND       PRES   REMARKS
NORTH PLATTE   CLOUDY    70  65  84 NW6       30.03R
IMPERIAL       CLOUDY    68  59  73 N15       30.02F
LEXINGTON      MOSUNNY   72  71  95 NW9       29.99R FOG
MCCOOK         PTSUNNY   76  69  79 N12       30.00S
OGALLALA       RAIN      64  59  83 NW15      30.06S
$$

NEZ005>010-023>029-035>040-094-221500-
NORTH CENTRAL NEBRASKA

CITY           SKY/WX    TMP DP  RH WIND       PRES   REMARKS
VALENTINE      CLOUDY    69  62  78 E3        30.01F
AINSWORTH      CLOUDY    69  66  90 CALM      30.02S
BROKEN BOW     CLOUDY    75  69  81 N3        29.99R
O`NEILL        PTSUNNY   74  71  89 NE6       29.99R
ORD            MOSUNNY   74  69  85 VRB3      29.95S
THEDFORD       CLOUDY    68  65  90 CALM      30.05R
$$

NEZ041-046>049-061>064-073>077-083>087-221500-
SOUTH CENTRAL NEBRASKA

CITY           SKY/WX    TMP DP  RH WIND       PRES   REMARKS
GRAND ISLAND   SUNNY     74  68  81 NE6       29.95S
AURORA         SUNNY     75  72  91 NE5       29.94S
HASTINGS       SUNNY     75  66  73 NE5       29.94R
HEBRON         SUNNY     77  68  74 SE6       29.92R
HOLDREGE       SUNNY     72  69  90 NE8       29.97R
KEARNEY *      CLOUDY    70  70 100 NE8       29.96S VSB 1
YORK           MOSUNNY   73 N/A N/A NE3       29.93S
$$

NEZ011>018-030>034-042>045-221500-
NORTHEAST NEBRASKA

CITY           SKY/WX    TMP DP  RH WIND       PRES   REMARKS
NORFOLK        SUNNY     79  70  74 CALM      29.94R
ALBION         SUNNY     75  70  84 NE5       29.95R
BLAIR          MOSUNNY   79  73  81 CALM      29.92R
FREMONT        SUNNY     79  72  79 CALM      29.92R
TEKAMAH        SUNNY     79  73  82 N6        29.91S
WAYNE          SUNNY     75  71  89 N5        29.94R
$$

NEZ050>053-065>068-078-088>093-221500-
SOUTHEAST NEBRASKA

CITY           SKY/WX    TMP DP  RH WIND       PRES   REMARKS
LINCOLN        SUNNY     79  73  82 CALM      29.92R
OMAHA EPPLEY   PTSUNNY   77  71  82 SE7       29.91R
BEATRICE       SUNNY     78  72  80 SE8       29.92R
FALLS CITY     CLOUDY    79  71  76 S8        29.93R
NEBRASKA CITY  MOSUNNY   76  74  94 S8        29.93R
PLATTSMOUTH    MOSUNNY   76  73  90 CALM      29.92R
$$

NEZ044-045-051>053-067-221500-
OMAHA AREA

CITY           SKY/WX    TMP DP  RH WIND       PRES   REMARKS
OMAHA EPPLEY   PTSUNNY   77  71  82 SE7       29.91R
BLAIR          MOSUNNY   79  73  81 CALM      29.92R
FREMONT        SUNNY     79  72  79 CALM      29.92R
MILLARD        SUNNY     79  73  82 SE5       29.91R
OFFUTT AFB     PTSUNNY   78  77  99 SE1       29.91R
PLATTSMOUTH    MOSUNNY   76  73  90 CALM      29.92R
WAHOO          FAIR      78  71  79 CALM      29.92R
$$


USA.gov is the U.S. government's official web portal to all federal, state and local government web resources and services.